Total_Precipitation_Accumulation
0.03 0.03 0.04 0.04 0.05 0.04 0.03 0.02 0.02 0.02 0.02 0.02 0.02 0.03 0.05 0.08 0.09 0.12 0.12 0.13 0.17 0.19 0.22 0.25 0.26 0.28 0.32 0.29 0.32 0.36 0.38 0.45 0.44 0.13 0.05 0.06 0.16 0.22 0.21 0.16 0.15 0.17 0.15
0.02 0.02 0.03 0.04 0.05 0.04 0.03 0.02 0.02 0.02 0.02 0.02 0.03 0.05 0.09 0.13 0.15 0.17 0.17 0.16 0.20 0.22 0.23 0.27 0.29 0.28 0.30 0.28 0.31 0.33 0.30 0.29 0.35 0.23 0.07 0.06 0.11 0.19 0.27 0.28 0.22 0.20 0.18
0.01 0.02 0.03 0.04 0.04 0.03 0.03 0.02 0.02 0.03 0.03 0.03 0.03 0.07 0.15 0.23 0.22 0.18 0.21 0.22 0.22 0.23 0.26 0.29 0.30 0.30 0.29 0.26 0.31 0.31 0.25 0.23 0.28 0.31 0.16 0.09 0.12 0.15 0.27 0.37 0.32 0.27 0.24
0.01 0.01 0.02 0.03 0.02 0.02 0.02 0.03 0.02 0.03 0.03 0.03 0.03 0.05 0.16 0.34 0.37 0.29 0.34 0.32 0.26 0.23 0.19 0.19 0.26 0.36 0.35 0.34 0.38 0.32 0.29 0.32 0.37 0.43 0.32 0.20 0.20 0.20 0.31 0.43 0.46 0.42 0.35
0.01 0.01 0.01 0.02 0.02 0.02 0.02 0.02 0.03 0.03 0.02 0.03 0.03 0.03 0.09 0.43 0.80 0.75 0.68 0.51 0.30 0.19 0.12 0.12 0.20 0.35 0.40 0.55 0.66 0.58 0.57 0.66 0.65 0.67 0.59 0.47 0.40 0.41 0.45 0.46 0.60 0.59 0.50
0.01 0.01 0.01 0.02 0.02 0.02 0.02 0.02 0.02 0.03 0.03 0.03 0.03 0.03 0.05 0.31 0.84 0.93 0.69 0.38 0.23 0.17 0.13 0.10 0.13 0.26 0.30 0.39 0.54 0.66 0.76 0.91 0.97 0.97 0.91 0.80 0.58 0.50 0.50 0.60 0.68 0.81 0.77
0.00 0.01 0.01 0.01 0.02 0.02 0.03 0.03 0.03 0.03 0.03 0.03 0.03 0.03 0.03 0.18 0.68 0.79 0.49 0.27 0.18 0.14 0.11 0.10 0.11 0.20 0.27 0.34 0.40 0.45 0.51 0.67 0.91 1.03 1.07 0.79 0.61 0.54 0.66 0.81 0.80 0.89 0.85
0.00 0.01 0.01 0.01 0.02 0.03 0.03 0.03 0.03 0.03 0.04 0.03 0.03 0.03 0.02 0.09 0.53 0.66 0.39 0.22 0.14 0.11 0.08 0.09 0.09 0.14 0.26 0.48 0.50 0.45 0.40 0.47 0.68 0.90 1.11 0.96 0.78 0.78 1.01 1.27 1.33 1.23 0.90
0.00 0.00 0.00 0.01 0.02 0.03 0.03 0.03 0.04 0.04 0.04 0.04 0.03 0.02 0.02 0.04 0.32 0.56 0.38 0.20 0.13 0.09 0.05 0.06 0.09 0.13 0.28 0.54 0.58 0.46 0.33 0.32 0.41 0.68 0.97 1.11 1.09 1.14 1.32 1.64 1.78 1.61 1.22
0.00 0.01 0.01 0.01 0.01 0.01 0.02 0.03 0.04 0.04 0.04 0.04 0.03 0.02 0.02 0.02 0.16 0.40 0.42 0.25 0.14 0.10 0.08 0.07 0.12 0.25 0.39 0.55 0.54 0.51 0.59 0.45 0.39 0.40 0.47 0.58 0.70 0.79 1.02 1.36 1.60 1.62 1.34
0.01 0.01 0.01 0.01 0.01 0.01 0.03 0.04 0.04 0.04 0.05 0.04 0.03 0.03 0.02 0.02 0.07 0.23 0.41 0.33 0.23 0.19 0.17 0.13 0.11 0.27 0.39 0.49 0.57 0.58 0.77 0.71 0.54 0.53 0.48 0.44 0.45 0.56 0.73 1.04 1.39 1.60 1.55
0.01 0.01 0.01 0.01 0.01 0.02 0.04 0.05 0.05 0.05 0.05 0.05 0.04 0.04 0.03 0.03 0.07 0.18 0.31 0.34 0.34 0.26 0.19 0.13 0.13 0.26 0.38 0.48 0.49 0.55 0.62 0.60 0.52 0.46 0.39 0.37 0.41 0.47 0.57 0.75 1.07 1.29 1.32
0.02 0.02 0.02 0.02 0.03 0.04 0.04 0.05 0.05 0.06 0.08 0.06 0.06 0.06 0.04 0.04 0.10 0.21 0.20 0.21 0.30 0.28 0.19 0.22 0.27 0.33 0.34 0.26 0.26 0.37 0.42 0.41 0.51 0.50 0.40 0.34 0.39 0.49 0.55 0.60 0.76 1.04 1.19
0.03 0.02 0.02 0.03 0.04 0.05 0.05 0.05 0.06 0.09 0.16 0.13 0.10 0.09 0.07 0.08 0.21 0.32 0.23 0.17 0.23 0.30 0.30 0.27 0.30 0.28 0.22 0.16 0.14 0.17 0.20 0.30 0.47 0.54 0.44 0.33 0.31 0.39 0.51 0.63 0.74 0.91 1.13
0.03 0.03 0.04 0.04 0.06 0.07 0.07 0.06 0.07 0.09 0.18 0.21 0.17 0.17 0.20 0.26 0.36 0.42 0.38 0.32 0.32 0.35 0.45 0.49 0.36 0.27 0.24 0.20 0.15 0.11 0.13 0.20 0.29 0.32 0.37 0.37 0.35 0.37 0.44 0.56 0.78 0.93 1.08
0.04 0.04 0.05 0.06 0.06 0.07 0.07 0.07 0.08 0.08 0.10 0.11 0.13 0.17 0.16 0.26 0.34 0.33 0.35 0.33 0.36 0.40 0.51 0.53 0.33 0.23 0.21 0.21 0.20 0.17 0.14 0.15 0.18 0.24 0.31 0.36 0.40 0.43 0.45 0.48 0.65 0.87 1.03
0.03 0.04 0.05 0.06 0.06 0.07 0.07 0.07 0.08 0.07 0.07 0.07 0.08 0.11 0.15 0.20 0.24 0.27 0.30 0.30 0.30 0.33 0.38 0.30 0.22 0.19 0.20 0.19 0.20 0.20 0.17 0.14 0.18 0.23 0.26 0.30 0.36 0.41 0.43 0.45 0.53 0.69 0.87
0.03 0.04 0.06 0.06 0.07 0.07 0.07 0.08 0.09 0.11 0.10 0.06 0.05 0.07 0.11 0.15 0.19 0.22 0.27 0.31 0.26 0.21 0.24 0.24 0.22 0.20 0.20 0.21 0.22 0.21 0.19 0.17 0.18 0.20 0.21 0.23 0.30 0.38 0.40 0.40 0.46 0.60 0.76
0.04 0.04 0.05 0.06 0.07 0.07 0.08 0.09 0.10 0.11 0.11 0.09 0.07 0.07 0.10 0.13 0.16 0.18 0.24 0.31 0.28 0.21 0.19 0.19 0.19 0.21 0.21 0.22 0.22 0.21 0.21 0.20 0.18 0.19 0.20 0.20 0.23 0.29 0.33 0.33 0.39 0.49 0.65
0.05 0.06 0.06 0.07 0.07 0.08 0.09 0.12 0.13 0.14 0.14 0.13 0.13 0.12 0.21 0.30 0.31 0.24 0.23 0.26 0.25 0.21 0.18 0.19 0.18 0.19 0.22 0.23 0.23 0.22 0.22 0.19 0.17 0.18 0.17 0.17 0.18 0.22 0.27 0.28 0.34 0.42 0.51
0.06 0.06 0.08 0.08 0.08 0.10 0.13 0.16 0.18 0.20 0.21 0.18 0.14 0.15 0.33 0.50 0.42 0.27 0.23 0.23 0.24 0.24 0.24 0.24 0.22 0.20 0.20 0.22 0.23 0.23 0.23 0.19 0.16 0.16 0.16 0.15 0.16 0.18 0.19 0.24 0.28 0.34 0.43
0.07 0.06 0.07 0.09 0.11 0.13 0.16 0.19 0.22 0.23 0.22 0.21 0.18 0.16 0.23 0.30 0.30 0.28 0.24 0.20 0.20 0.23 0.26 0.30 0.27 0.22 0.23 0.28 0.30 0.30 0.24 0.19 0.15 0.16 0.16 0.15 0.15 0.15 0.17 0.19 0.21 0.27 0.35
0.08 0.10 0.12 0.13 0.13 0.17 0.19 0.18 0.20 0.22 0.24 0.24 0.23 0.22 0.23 0.26 0.26 0.27 0.25 0.22 0.22 0.22 0.22 0.26 0.27 0.21 0.18 0.22 0.26 0.33 0.33 0.24 0.18 0.20 0.22 0.19 0.16 0.15 0.16 0.18 0.19 0.24 0.31
0.11 0.15 0.18 0.17 0.18 0.20 0.22 0.22 0.22 0.24 0.26 0.26 0.24 0.24 0.24 0.25 0.24 0.24 0.23 0.23 0.24 0.22 0.22 0.24 0.24 0.22 0.21 0.22 0.22 0.24 0.25 0.23 0.25 0.26 0.24 0.25 0.22 0.17 0.19 0.21 0.20 0.23 0.28
0.14 0.18 0.20 0.21 0.24 0.26 0.27 0.27 0.26 0.26 0.27 0.27 0.27 0.26 0.24 0.23 0.23 0.21 0.19 0.20 0.21 0.20 0.19 0.22 0.24 0.24 0.23 0.23 0.23 0.24 0.22 0.24 0.29 0.39 0.42 0.38 0.29 0.22 0.23 0.24 0.22 0.22 0.26
0.15 0.18 0.21 0.25 0.29 0.31 0.35 0.36 0.32 0.29 0.31 0.30 0.28 0.27 0.27 0.26 0.23 0.21 0.20 0.20 0.22 0.20 0.18 0.18 0.21 0.24 0.24 0.24 0.23 0.23 0.26 0.27 0.30 0.36 0.48 0.51 0.38 0.26 0.25 0.28 0.24 0.25 0.27